x

Boston 16 Nm East Of Boston, Ma (44013) Wave Buoy

10:50 - Mon 27th Mar 2017 All times are EDT. -4 hours from GMT.

  • Sig Wave height 3.6ft
  • Swell Direction
  • Peak Period 5s
  • Average Period 4s
  • Wind
    18mph, 20mph gusts
  • Sea Temp 40°f
  • Air Temp 41°f
  • Sea Pressure 1019.7mb
  • Boston 16 Nm East Of Boston, Ma
  • Boston 16 Nm East Of Boston, Ma

More Historic Weather Station data

Upgrade to MSW Pro to gain access to the past 30 days of data for over 8000 Wavebouys and Weather Stations around the globe.

Join Pro

Comparision Forecast

View Surf forecast
   
lun. 03/27 10:50 3.5ft 5s 4s 18 20 mph 1019.7mb 40f 41f
9:50 3.5ft 5s 4s 11 13 mph 1020.7mb 40f 40f
8:50 3.5ft 5s 4s 18 20 mph 1021.6mb 40f 40f
7:50 3ft 5s 4s 18 20 mph 1022.7mb 40f 40f
6:50 2.5ft 5s 4s 18 22 mph 1023.5mb 40f 39f
5:50 2.5ft 6s 4s 13 16 mph 1024.9mb 40f 39f
4:50 2.5ft 5s 4s 13 16 mph 1025.5mb 40f 38f
3:50 2.5ft 6s 4s 13 16 mph 1026mb 40f 39f
2:50 2.5ft 6s 4s 13 16 mph 1026.8mb 40f 39f
1:50 2.5ft 6s 4s 13 16 mph 1027.5mb 40f 38f
12:50 2.5ft 6s 4s 13
mph
1028.3mb 40f 38f
dim. 03/26 11:50 3ft 6s 4s 13 16 mph 1029mb 40f 38f
10:50 3ft 6s 4s 16 18 mph 1029.2mb 40f 38f
9:50 3ft 7s 5s 16 18 mph 1029.8mb 40f 38f
8:50 3.5ft 7s 5s 13 16 mph 1030.8mb 40f 38f
7:50 3.5ft 6s 5s 13 16 mph 1031.1mb 40f 38f
6:50 3.5ft 5s 5s 11 13 mph 1031.7mb 40f 38f
5:50 3.5ft 5s 5s 13 16 mph 1032.2mb 40f 37f
4:50 3.5ft 5s 5s 11 13 mph 1032.5mb 40f 37f
3:50 3ft 5s 4s 11 13 mph 1032.8mb 40f 37f
2:50 3ft 6s 4s 13 16 mph 1033mb 40f 37f
1:50 3.5ft 5s 4s 13 16 mph 1033.6mb 40f 37f
12:50 3.5ft 5s 4s 16 18 mph 1033.6mb 40f 37f
11:50 3.5ft 5s 4s 16 18 mph 1033.8mb 40f 38f
10:50 4ft 6s 4s 16 18 mph 1034.1mb 40f 38f
9:50 4ft 6s 4s 18 22 mph 1033.2mb 40f 38f
8:50 4.5ft 6s 4s 18 22 mph 1032.9mb 40f 39f
7:50 4ft 6s 4s 18 20 mph 1033.2mb 40f 39f
6:50 4.5ft 5s 4s 20 25 mph 1032.1mb 40f 38f
5:50 3.5ft 5s 4s 18 22 mph 1031.9mb 40f 38f
4:50 2.5ft 4s 4s 18 20 mph 1031.5mb 40f 39f
3:50 2ft 3s 3s 18 20 mph 1030.9mb 40f 39f
2:50 1.6ft 3s 3s 16 18 mph 1030.5mb 40f 39f
1:50 1.6ft 3s 3s 16 18 mph 1030.1mb 40f 38f
12:50 1.3ft 5s 4s 16 18 mph 1029.7mb 40f 38f
sam. 03/25 11:50 1.3ft 5s 4s 11 13 mph 1029.3mb 40f 38f
10:50 1.3ft 5s 4s 9
mph
1029.1mb 40f 38f
9:50 1.6ft 5s 4s 7 9 mph 1028.6mb 40f 38f
8:50 1.6ft 4s 4s 7 9 mph 1028.3mb 40f 37f
7:50 1.6ft 4s 4s 7 9 mph 1027.4mb 40f 37f
6:50 1.6ft 4s 4s 9
mph
1026.5mb 40f 37f
5:50 1.6ft 4s 4s 9 13 mph 1026mb 40f 37f
4:50 1.6ft 4s 4s 9 13 mph 1025.6mb 40f 36f
3:50 2ft 4s 4s 11 13 mph 1025.8mb 40f 36f
2:50 1.6ft 4s 3s 16 18 mph 1025.2mb 40f 37f
1:50 2ft 4s 4s 16
mph
1025mb 40f 39f
12:50 1.6ft 3s 3s 9 11 mph 1024.5mb 40f 39f
11:50 1.3ft 3s 3s 11 16 mph 1023.6mb 40f 39f
10:50 1ft 2s 3s 16 22 mph 1022.6mb 40f 39f
9:50 1ft 2s 3s 9 11 mph 1022.8mb 40f 40f
8:50 1ft 9s 3s 11 13 mph 1021.2mb 40f 39f
7:50 1ft 10s 4s 9 11 mph 1020.9mb 40f 40f
6:50 1ft 5s 4s 7 9 mph 1019.4mb 40f 41f
5:50 1ft 8s 4s 11 13 mph 1018.3mb 40f 40f
4:50 1ft 10s 5s 13 16 mph 1017.9mb 40f 40f
3:50 1ft 11s 4s 9 11 mph 1017.3mb 40f 43f
2:50 1ft 10s 4s 4 7 mph 1017.1mb 40f 43f
1:50 1ft 11s 4s 7
mph
1017.1mb 40f 43f
12:50 1.3ft 4s 4s 7
mph
1017.3mb 40f 43f
ven. 03/24 11:50 1.3ft 4s 4s 7
mph
1017.8mb 40f 43f
10:50 1.6ft 4s 4s 4 7 mph 1017.8mb 40f 42f
9:50 1.6ft 5s 4s 11 13 mph 1017.3mb 40f 43f
8:50 2.5ft 5s 4s 16
mph
1017.6mb 40f 43f
7:50 2.5ft 4s 4s 11 13 mph 1017.7mb 40f 43f
6:50 2.5ft 5s 4s 11 13 mph 1018.6mb 40f 43f
5:50 2.5ft 5s 4s 16 18 mph 1019.2mb 40f 42f
4:50 3ft 5s 4s 18 20 mph 1020.2mb 40f 40f
3:50 3ft 5s 4s 16 18 mph 1022.2mb 40f 39f
2:50 3.5ft 4s 4s 20 25 mph 1023.1mb 40f 37f
1:50 2.5ft 4s 3s 25 31 mph 1025.1mb 40f 38f
12:50 2.5ft 4s 4s 20 27 mph 1027.1mb 40f 39f
11:50 2ft 4s 3s 18 20 mph 1029mb 40f 39f
10:50 1.6ft 3s 3s 18 20 mph 1029.7mb 40f 37f
9:50 2ft 3s 3s 18 20 mph 1030.3mb 40f 36f
8:50 1.6ft 3s 3s 20 22 mph 1031.3mb 40f 36f
7:50 1.3ft 5s 4s 16 18 mph 1032.1mb 40f 34f
6:50 1ft 6s 4s 13 16 mph 1032.4mb 40f 36f
5:50 1.3ft 6s 4s 7 9 mph 1032.1mb 40f 35f
4:50 1.3ft 7s 4s 4
mph
1032.5mb 40f 35f
3:50 1.3ft 4s 4s  -  2 mph 1033.1mb 40f 35f
2:50 1.6ft 4s 4s 4 7 mph 1033.3mb 40f 35f
1:50 1.6ft 4s 4s 11
mph
1033.8mb 40f 35f
12:50 1.6ft 4s 3s 11 13 mph 1033.5mb 40f 36f
jeu. 03/23 11:50 1.6ft 4s 3s 11 13 mph 1033.2mb 40f 36f
10:50 1.6ft 3s 3s 13 16 mph 1033mb 40f 36f
9:50 2ft 3s 3s 16 20 mph 1032.7mb 40f 37f
8:50 2.5ft 4s 4s 16 20 mph 1032mb 40f 37f
7:50 3ft 4s 4s 20 22 mph 1030.7mb 40f 37f
6:50 3ft 4s 4s 22 27 mph 1030mb 40f 37f
5:50 2.5ft 4s 4s 18 22 mph 1029.5mb 40f 37f
4:50 3ft 4s 4s 20 25 mph 1029.2mb 40f 36f